Regional Weather Roundup
Issued by NWS Jackson, KY

Home | Current Version | Previous Version | Graphics & Text | Print | Product List | Glossary On
Versions: 1 2 3 4 5 6 7 8 9 10 11 12 13 14 15 16 17 18 19 20 21 22 23 24 25 26 27 28 29 30 31 32 33 34 35 36 37 38 39 40 41 42 43 44 45 46 47 48 49 50
000
ASUS43 KJKL 240305
RWRJKL

EAST KENTUCKY HOURLY WEATHER ROUNDUP
NATIONAL WEATHER SERVICE JACKSON KY
1100 PM EDT WED JUL 23 2014

NOTE: "FAIR" INDICATES FEW OR NO CLOUDS BELOW 12,000 FEET WITH
NO SIGNIFICANT WEATHER AND/OR OBSTRUCTIONS TO VISIBILITY.

* THESE REPORTS ARE NOT UNDER NWS QUALITY CONTROL AND MAY NOT
  REPORT WEATHER SUCH AS PRECIPITATION AND FOG.

KYZ079-080-083-085-087-088-110-112-115-119-120-240400
...EASTERN KENTUCKY...

CITY           SKY/WX    TMP DP  RH WIND       PRES   REMARKS
JACKSON        LGT RAIN  68  66  93 CALM      30.02F FOG
LONDON         LGT RAIN  71  68  90 CALM      30.03R
SOMERSET*      LGT RAIN  70  70 100 CALM      30.02F
MONTICELLO*    LGT RAIN  73  72  97 S7        30.04S FOG
MIDDLESBORO*   CLOUDY    72  69  90 CALM      30.02S
HARLAN APT*    CLOUDY    68  68 100 MISG      30.03F
BLACK MTN*       N/A     64  61  88 CALM        N/A
PIKEVILLE APT* DRIZZLE   70  68  94 CALM      30.03R
BIG SANDY*     LGT RAIN  69  69  99 W5        30.02S VSB 1/4
MOREHEAD APT*  CLOUDY    73  70  88 S5        30.03R
$$

KYZ035-036-041-042-044-050-067-078-099-240400
...CENTRAL KENTUCKY...

CITY           SKY/WX    TMP DP  RH WIND       PRES   REMARKS
MT STERLING*   CLOUDY    72  64  78 W8        30.03R
FLEMING/MASON* CLOUDY    73  66  78 CALM      30.01S
DANVILLE*      CLOUDY    70  68  94 SW6       30.02S
RICHMOND*      CLOUDY    72  68  88 E5        30.01R
LEXINGTON      MOCLDY    74  66  76 SW3       30.00S
FRANKFORT      CLEAR     75  68  78 N3        29.98F
$$

KYZ091>093-OHZ055-061-077-WVZ005-015-034-035-042-240400
...SOUTHERN OHIO/WEST VIRGINIA...

CITY           SKY/WX    TMP DP  RH WIND       PRES   REMARKS
COVINGTON      CLOUDY    71  67  87 N10       30.01R
COLUMBUS       CLOUDY    68  58  70 N13       30.03R
DAYTON         CLOUDY    67  64  90 NE12      30.06R
WILMINGTON     CLOUDY    67  63  87 NE13      30.02R
HUNTINGTON     CLOUDY    75  64  68 CALM      29.97S
CHARLESTON     LGT RAIN  70  70 100 CALM      29.99R VSB 1
PINEVILLE*     CLOUDY    73  73  99 MISG      30.08R
BECKLEY        RAIN      70  65  84 N16       30.06R
BLUEFIELD      PTCLDY    72  66  81 SW7       30.08R
$$

VAZ002-007-008-TNZ017-027-036-066-071-240400
...SOUTHWEST VIRGINIA/EAST TENNESSEE...

CITY           SKY/WX    TMP DP  RH WIND       PRES   REMARKS
WISE*          MOCLDY    68  66  94 N8        30.10R
JONESVILLE*      N/A     68  68 100 CALM      30.05S FOG
ABINGDON*      PTCLDY    73  70  91 CALM      30.06S
BRISTOL        MOCLDY    73  68  84 SW3       30.02S
KNOXVILLE      MOCLDY    75  71  87 W5        30.00S
OAK RIDGE      MOCLDY    73  71  93 CALM      30.02S
CROSSVILLE     CLOUDY    73  68  84 N5        30.08R
NASHVILLE      MOCLDY    79  71  76 NE8       30.01R
$$

...KEY TO REMARKS...
VSB - VISIBILITY IN MILES
WCI - WIND CHILL INDEX
HX  - HEAT INDEX

$$



USA.gov is the U.S. government's official web portal to all federal, state and local government web resources and services.